THORAD AGENA D DEB, 42505

Orbit data source: Space-Track

THORAD AGENA D DEB, 42505 is space debris in SSO originally from a launch on Wed, 08 Apr 1970 UTC launched from the Air Force Western Test Range (AFWTR). Debris objects in space refer to the collection of defunct objects orbiting the Earth. Examples of debris include non-operational satellites, rocket bodies, and fragments generated from explosions, collisions, or faulty payload assembly.

Loading next visibility...
Identifier
42505, 1970-025RK
Orbit
SSO
Country
Flag of USUS
Related business
Manufacturer
Unknown
Mission
Spacecraft
Bus & Motor
Unknown
Mass
Unknown
Launch date (UTC)
1970-04-08 (56 years ago)
Launch vehicle
Unknown
Launch site
Air Force Western Test Range (AFWTR)
Object type
Payload
Rocket body
Debris
Shape & HBR
Unknown shape, 0.1 m
Radar Cross Section
Small (<0.1 m²)

Expand to show TLE details & history
Last TLE update: 4 days ago

TLE from 4 days ago
0 THORAD AGENA D DEB
1 42505U 70025RK  25284.07768904  .00000624  00000-0  90104-3 0  9991
2 42505 100.1465 225.4038 0044365  89.6224 285.1170 13.59503470589421
Epoch: 2025-10-11T01:51Z
TLE epoch observation values (Epoch: 2025-10-11T01:51:52.333Z)
Latitude
13.99173°
Longitude
174.97875°
Altitude
1,031.106 km
Speed
7.342 km/s
True Right ascension
14h 51m 26s
True Declination
13° 54' 51"
Sunlit
Object was in daylight at epoch
Visualization orbit readout
Latitude
Unknown
Longitude
Unknown
Altitude
Unknown
Speed
Unknown
Apparent Right ascension
Unknown
Apparent Declination
Unknown
Sunlit
N/A
Visualization observer readout
Local Sidereal Time
02:54:47
Azimuth
Unknown
Elevation
Unknown
Doppler factor
Unknown
Orbital elements
Apogee altitude
1,067.697 km
Perigee altitude
1,001.922 km
Semi-major axis
7,412.946 km
Eccentricity
0.00444
Inclination
100.1465°
RAAN
225.4038°
Arg. of periapsis
89.6224°
True anomaly
284.6255°
Mean anomaly
285.117°
Eccentric anomaly
284.87132°
Mean motion
3.40061 °/min
Orbital period
105.86 mins
BSTAR
0.00090104

Documentation

Showing up to 5 results
|